Back to catalog

COSMOS 1217 DEB

LostHEO
NORAD 27899·DEBRIS·🇷🇺 Russia

Launched Oct 24, 1980 from Plesetsk Cosmodrome

Loading…

Next Passes (next 24 hours)

TLE

StaleSource: Space-Track

Epoch: Oct 31, 2025, 13:15 UTC

1 27899U 80085J   25304.55254944  .00001034  00000-0  00000-0 0  9996
2 27899  67.8036  57.2633 6398983 281.1144  17.6445  2.02560369171593

Track COSMOS 1217 DEB in real time with AllMySat

Download on the App Store